Location: *
(51.0333°S, 178.4667°E)
Time: 20:19:55
(UTC+00:00)

Cosmos 1441 Rocket - Pass Details

Date: 15 November 2019
Orbit: 497 x 541 km, 81.1° (Epoch: 05 December)

Event Time Altitude Azimuth Distance (km) Brightness Sun altitude
Exits shadow 11:47:34 33° 286° (WNW) 888 4.2 -20.5°
Maximum altitude 11:48:30 39° 252° (WSW) 789 4.2 -20.5°
Drops below altitude 10° 11:52:09 10° 181° (S) 1,753 7.1 -20.5°
Sets 11:54:23 0° 173° (S) 2,643 8.4 -20.5°
